When you browse on this site, cookies collect data to enhance your experience and personalize the content and advertising you see.
Visit our Privacy Policy to learn more. By continuing to use the site, you agree to this use of cookies and data.
  • en Suisse
  • Liste des pays
  • À 7 jours
  • Température de l'eau
  • Carte satellitaire
  • Carte météo
  • Widgets météo
  • user-avatar
    Se connecter

    Météo par heure à Bruchsal

    Ce jour, 23 Juillet, Mardi

    Heure Température Précipitation Vent Pression Humidité
    00:00 +23°C° 0 mm 1 m/s 756 mmHg 55%
    01:00 +23°C° 0 mm 1 m/s 756 mmHg 56%
    02:00 +22°C° 0 mm 1 m/s 756 mmHg 58%
    03:00 +22°C° 0 mm 1 m/s 755 mmHg 60%
    04:00 +21°C° 0 mm 1 m/s 755 mmHg 63%
    05:00 +22°C° 0 mm 1 m/s 755 mmHg 62%
    06:00 +23°C° 0 mm 2 m/s 755 mmHg 62%
    07:00 +24°C° 0 mm 2 m/s 755 mmHg 61%
    08:00 +26°C° 0 mm 2 m/s 755 mmHg 56%
    09:00 +28°C° 0 mm 2 m/s 755 mmHg 50%
    10:00 +30°C° 0 mm 3 m/s 755 mmHg 44%
    11:00 +31°C° 0 mm 3 m/s 755 mmHg 41%
    12:00 +34°C° 0 mm 3 m/s 754 mmHg 37%
    13:00 +35°C° 0 mm 3 m/s 754 mmHg 34%
    14:00 +35°C° 0 mm 3 m/s 754 mmHg 34%
    15:00 +35°C° 0 mm 3 m/s 753 mmHg 34%
    16:00 +36°C° 0 mm 3 m/s 753 mmHg 35%
    17:00 +34°C° 0 mm 3 m/s 753 mmHg 41%
    18:00 +33°C° 0 mm 3 m/s 753 mmHg 48%
    19:00 +31°C° 0 mm 2 m/s 752 mmHg 54%
    20:00 +29°C° 0 mm 2 m/s 752 mmHg 59%
    21:00 +28°C° 0 mm 2 m/s 753 mmHg 63%
    22:00 +26°C° 0 mm 2 m/s 753 mmHg 67%
    23:00 +25°C° 0 mm 2 m/s 753 mmHg 69%

    Demain, 24 Juillet, Mercredi

    Heure Température Précipitation Vent Pression Humidité
    00:00 +25°C° 0 mm 2 m/s 752 mmHg 71%
    01:00 +24°C° 0 mm 2 m/s 752 mmHg 73%
    02:00 +24°C° 0 mm 2 m/s 752 mmHg 74%
    03:00 +23°C° 0 mm 2 m/s 752 mmHg 76%
    04:00 +23°C° 0 mm 2 m/s 752 mmHg 77%
    05:00 +24°C° 0 mm 2 m/s 752 mmHg 74%
    06:00 +25°C° 0 mm 2 m/s 752 mmHg 71%
    07:00 +25°C° 0 mm 2 m/s 752 mmHg 68%
    08:00 +27°C° 0 mm 2 m/s 752 mmHg 62%
    09:00 +29°C° 0 mm 2 m/s 752 mmHg 55%
    10:00 +32°C° 0 mm 2 m/s 752 mmHg 49%
    11:00 +33°C° 0 mm 1 m/s 751 mmHg 44%
    12:00 +35°C° 0 mm 1 m/s 751 mmHg 39%
    13:00 +37°C° 0 mm 1 m/s 751 mmHg 35%
    14:00 +37°C° 0 mm 1 m/s 751 mmHg 33%
    15:00 +37°C° 0 mm 1 m/s 751 mmHg 32%
    16:00 +37°C° 0 mm 1 m/s 750 mmHg 31%
    17:00 +36°C° 0 mm 1 m/s 750 mmHg 38%
    18:00 +34°C° 0 mm 1 m/s 750 mmHg 45%
    19:00 +34°C° 0 mm 2 m/s 750 mmHg 51%
    20:00 +31°C° 0 mm 1 m/s 751 mmHg 56%
    21:00 +29°C° 0 mm 1 m/s 751 mmHg 61%
    22:00 +28°C° 0 mm 1 m/s 751 mmHg 66%
    23:00 +27°C° 0 mm 1 m/s 751 mmHg 68%

    Après-demain, 25 Juillet, Jeudi

    Heure Température Précipitation Vent Pression Humidité
    00:00 +27°C° 0 mm 1 m/s 751 mmHg 70%
    01:00 +26°C° 0 mm 1 m/s 751 mmHg 72%
    02:00 +26°C° 0 mm 1 m/s 751 mmHg 73%
    03:00 +25°C° 0 mm 1 m/s 751 mmHg 75%
    04:00 +25°C° 0 mm 1 m/s 751 mmHg 77%
    05:00 +25°C° 0 mm 1 m/s 751 mmHg 74%
    06:00 +26°C° 0 mm 1 m/s 751 mmHg 72%
    07:00 +27°C° 0 mm 2 m/s 751 mmHg 69%
    08:00 +29°C° 0 mm 2 m/s 752 mmHg 62%
    09:00 +31°C° 0 mm 2 m/s 752 mmHg 55%
    10:00 +34°C° 0 mm 2 m/s 752 mmHg 48%
    11:00 +36°C° 0 mm 2 m/s 751 mmHg 43%
    12:00 +37°C° 0 mm 3 m/s 751 mmHg 38%
    13:00 +38°C° 0 mm 3 m/s 751 mmHg 33%
    14:00 +38°C° 0 mm 3 m/s 750 mmHg 33%
    15:00 +38°C° 0 mm 4 m/s 750 mmHg 33%
    16:00 +38°C° 0 mm 4 m/s 750 mmHg 33%
    17:00 +37°C° 0 mm 4 m/s 750 mmHg 39%
    18:00 +35°C° 0 mm 3 m/s 750 mmHg 45%
    19:00 +34°C° 0 mm 2 m/s 749 mmHg 50%
    20:00 +31°C° 0 mm 2 m/s 750 mmHg 54%
    21:00 +30°C° 0 mm 2 m/s 750 mmHg 57%
    22:00 +28°C° 0 mm 1 m/s 750 mmHg 61%
    23:00 +27°C° 0 mm 1 m/s 750 mmHg 63%

    26 Juillet, Vendredi

    Heure Température Précipitation Vent Pression Humidité
    00:00 +27°C° 0 mm 1 m/s 750 mmHg 64%
    01:00 +26°C° 0 mm 1 m/s 749 mmHg 66%
    02:00 +26°C° 0 mm 2 m/s 749 mmHg 68%
    03:00 +25°C° 0 mm 2 m/s 749 mmHg 69%
    04:00 +25°C° 0 mm 2 m/s 749 mmHg 71%
    05:00 +25°C° 0 mm 2 m/s 749 mmHg 69%
    06:00 +26°C° 0 mm 2 m/s 749 mmHg 66%
    07:00 +27°C° 0 mm 2 m/s 748 mmHg 64%
    08:00 +29°C° 0 mm 3 m/s 748 mmHg 57%
    09:00 +31°C° 0 mm 3 m/s 748 mmHg 51%
    10:00 +34°C° 0 mm 3 m/s 748 mmHg 44%
    11:00 +35°C° 0 mm 3 m/s 748 mmHg 40%
    12:00 +36°C° 0 mm 3 m/s 747 mmHg 36%
    13:00 +37°C° 0 mm 4 m/s 747 mmHg 32%
    14:00 +37°C° 0 mm 4 m/s 747 mmHg 33%
    15:00 +37°C° 0 mm 4 m/s 746 mmHg 33%
    16:00 +37°C° 0 mm 4 m/s 746 mmHg 34%
    17:00 +36°C° 0 mm 3 m/s 746 mmHg 38%
    18:00 +34°C° 0 mm 3 m/s 745 mmHg 43%
    19:00 +32°C° 0 mm 2 m/s 745 mmHg 47%
    20:00 +30°C° 0 mm 2 m/s 745 mmHg 50%
    21:00 +29°C° 0 mm 2 m/s 745 mmHg 52%
    22:00 +27°C° 0 mm 2 m/s 745 mmHg 55%
    23:00 +26°C° 0 mm 2 m/s 745 mmHg 57%

    27 Juillet, Samedi

    Heure Température Précipitation Vent Pression Humidité
    00:00 +26°C° 0 mm 2 m/s 745 mmHg 59%
    01:00 +25°C° 0 mm 2 m/s 744 mmHg 61%
    02:00 +24°C° 0 mm 2 m/s 744 mmHg 63%
    03:00 +24°C° 0 mm 2 m/s 744 mmHg 64%
    04:00 +23°C° 0 mm 2 m/s 744 mmHg 66%
    05:00 +24°C° 0 mm 2 m/s 744 mmHg 66%
    06:00 +24°C° 0 mm 2 m/s 743 mmHg 66%
    07:00 +24°C° 0 mm 2 m/s 743 mmHg 66%
    08:00 +26°C° 0 mm 2 m/s 743 mmHg 61%
    09:00 +28°C° 0 mm 3 m/s 743 mmHg 55%
    10:00 +30°C° 0 mm 3 m/s 743 mmHg 50%
    11:00 +31°C° 0 mm 3 m/s 743 mmHg 46%
    12:00 +33°C° 0 mm 3 m/s 743 mmHg 43%
    13:00 +34°C° 0 mm 4 m/s 742 mmHg 39%
    14:00 +34°C° 0 mm 4 m/s 742 mmHg 39%
    15:00 +34°C° 0 mm 4 m/s 741 mmHg 40%
    16:00 +34°C° 0 mm 4 m/s 741 mmHg 40%
    17:00 +33°C° 0 mm 4 m/s 741 mmHg 44%
    18:00 +32°C° 0 mm 4 m/s 741 mmHg 47%
    19:00 +29°C° 0 mm 3 m/s 741 mmHg 50%
    20:00 +28°C° 0.2 mm 3 m/s 741 mmHg 55%
    21:00 +26°C° 0.2 mm 2 m/s 741 mmHg 60%
    22:00 +24°C° 0.2 mm 1 m/s 742 mmHg 65%
    23:00 +24°C° 0.1 mm 2 m/s 742 mmHg 68%

    28 Juillet, Dimanche

    Heure Température Précipitation Vent Pression Humidité
    00:00 +23°C° 0.1 mm 2 m/s 742 mmHg 72%
    01:00 +21°C° 0.1 mm 2 m/s 742 mmHg 75%
    02:00 +21°C° 0.1 mm 2 m/s 742 mmHg 79%
    03:00 +20°C° 0.1 mm 2 m/s 742 mmHg 83%
    04:00 +21°C° 0.1 mm 1 m/s 742 mmHg 87%
    05:00 +21°C° 0.1 mm 1 m/s 742 mmHg 85%
    06:00 +21°C° 0.1 mm 1 m/s 743 mmHg 84%
    07:00 +22°C° 0.1 mm 1 m/s 743 mmHg 83%
    08:00 +23°C° 0 mm 1 m/s 743 mmHg 77%
    09:00 +24°C° 0 mm 1 m/s 744 mmHg 71%
    10:00 +25°C° 0 mm 2 m/s 744 mmHg 66%
    11:00 +26°C° 0.1 mm 2 m/s 744 mmHg 64%
    12:00 +26°C° 0.1 mm 3 m/s 745 mmHg 63%
    13:00 +27°C° 0.1 mm 3 m/s 745 mmHg 62%
    14:00 +26°C° 0.3 mm 4 m/s 745 mmHg 63%
    15:00 +26°C° 0.3 mm 4 m/s 745 mmHg 64%
    16:00 +26°C° 0.3 mm 5 m/s 745 mmHg 65%
    17:00 +25°C° 0.2 mm 5 m/s 745 mmHg 68%
    18:00 +23°C° 0.2 mm 5 m/s 746 mmHg 71%
    19:00 +22°C° 0.2 mm 5 m/s 746 mmHg 74%
    20:00 +21°C° 0 mm 5 m/s 746 mmHg 77%
    21:00 +20°C° 0 mm 4 m/s 747 mmHg 79%
    22:00 +19°C° 0 mm 4 m/s 748 mmHg 82%
    23:00 +18°C° 0 mm 4 m/s 748 mmHg 83%
    Voir plus